Zurück zum Katalog

EUTE 5W B

AktivKommunikationGEO
NORAD 44624·PAYLOAD·🇪🇺 EU

Gestartet Oct 9, 2019 von Baikonur Cosmodrome

Loading…

TLE

AktuellSource: Space-Track

Epoche: Sep 14, 2026, 13:46 UTC

1 44624U 19067A   26257.57406101 -.00000050  00000-0  00000-0 0  9995
2 44624   0.0771 324.6417 0003135 206.0693  24.5004  1.00271937 25329

Verfolge EUTE 5W B in Echtzeit mit AllMySat

Download on the App Store